SIF161 OPKC-OPQT

Flight info

Callsign SIF161
Flight time 0h 55m
Altitude 30000
Route BADUL DCT NIPET DCT VEGSA
Aircraft A320/M-SDE3FGHIRWY/LB1

Departure

Time 2026-05-07 05:32
Airport Jinnah International Airport (OPKC)

Arrival

Time 2026-05-07 06:28
Airport Quetta International Airport (OPQT)
Time Latitude Longitude Altitude Speed Heading
2026-05-07 05:11 24.90209 67.16525 100 ft 0 kts 124°
2026-05-07 05:11 24.90212 67.16521 101 ft 0 kts 124°
2026-05-07 05:23 24.90218 67.16511 101 ft 4 kts 124°
2026-05-07 05:24 24.90233 67.16486 100 ft 4 kts 124°
2026-05-07 05:24 24.90248 67.16461 99 ft 4 kts 124°
2026-05-07 05:24 24.90261 67.16440 100 ft 4 kts 136°
2026-05-07 05:24 24.90281 67.16431 101 ft 4 kts 203°
2026-05-07 05:25 24.90299 67.16448 100 ft 4 kts 248°
2026-05-07 05:25 24.90302 67.16455 99 ft 0 kts 255°
2026-05-07 05:28 24.90300 67.16446 100 ft 2 kts 255°
2026-05-07 05:28 24.90296 67.16420 100 ft 5 kts 269°
2026-05-07 05:28 24.90311 67.16380 101 ft 7 kts 308°
2026-05-07 05:28 24.90357 67.16359 102 ft 8 kts 360°
2026-05-07 05:29 24.90400 67.16401 102 ft 9 kts 69°
2026-05-07 05:29 24.90420 67.16476 102 ft 11 kts 75°
2026-05-07 05:29 24.90442 67.16565 102 ft 13 kts 74°
2026-05-07 05:29 24.90468 67.16665 102 ft 14 kts 74°
2026-05-07 05:30 24.90496 67.16776 102 ft 16 kts 75°
2026-05-07 05:30 24.90526 67.16897 102 ft 17 kts 75°
2026-05-07 05:30 24.90560 67.17006 101 ft 10 kts 45°
2026-05-07 05:30 24.90629 67.17000 103 ft 10 kts 343°
2026-05-07 05:31 24.90695 67.16979 106 ft 9 kts 344°
2026-05-07 05:31 24.90737 67.16937 107 ft 9 kts 271°
2026-05-07 05:31 24.90713 67.16823 105 ft 37 kts 257°
2026-05-07 05:31 24.90578 67.16304 104 ft 100 kts 254°
2026-05-07 05:32 24.90347 67.15388 105 ft 146 kts 255°
2026-05-07 05:32 24.90076 67.14240 495 ft 154 kts 252°
2026-05-07 05:32 24.89780 67.13096 1087 ft 156 kts 263°
2026-05-07 05:32 24.90107 67.11981 1657 ft 163 kts 316°
2026-05-07 05:33 24.91176 67.11448 2098 ft 184 kts 354°
2026-05-07 05:33 24.92468 67.11854 2319 ft 212 kts 34°
2026-05-07 05:33 24.93561 67.13081 2469 ft 238 kts 46°
2026-05-07 05:33 24.94682 67.14533 2768 ft 259 kts 42°
2026-05-07 05:34 24.96232 67.15597 3192 ft 267 kts 13°
2026-05-07 05:34 24.98078 67.15796 3787 ft 269 kts 356°
2026-05-07 05:34 24.99962 67.15730 4533 ft 271 kts 357°
2026-05-07 05:34 25.01849 67.15650 5259 ft 272 kts 357°
2026-05-07 05:35 25.03745 67.15568 5960 ft 274 kts 356°
2026-05-07 05:35 25.05663 67.15483 6658 ft 276 kts 356°
2026-05-07 05:35 25.07595 67.15398 7332 ft 279 kts 356°
2026-05-07 05:35 25.09536 67.15317 8057 ft 280 kts 356°
2026-05-07 05:36 25.11487 67.15238 8783 ft 281 kts 356°
2026-05-07 05:36 25.13455 67.15158 9513 ft 283 kts 356°
2026-05-07 05:36 25.15445 67.15078 10041 ft 294 kts 356°
2026-05-07 05:36 25.17565 67.14992 10170 ft 316 kts 357°
2026-05-07 05:37 25.19834 67.14900 10296 ft 336 kts 357°
2026-05-07 05:37 25.22235 67.14804 10432 ft 354 kts 357°
2026-05-07 05:37 25.24731 67.14704 10843 ft 361 kts 357°
2026-05-07 05:37 25.27250 67.14605 11398 ft 363 kts 357°
2026-05-07 05:38 25.29778 67.14508 11977 ft 365 kts 357°
2026-05-07 05:38 25.32320 67.14411 12555 ft 367 kts 357°
2026-05-07 05:38 25.34886 67.14310 13087 ft 370 kts 357°
2026-05-07 05:38 25.37436 67.14207 13627 ft 372 kts 357°
2026-05-07 05:39 25.40075 67.14099 14112 ft 375 kts 357°
2026-05-07 05:39 25.42660 67.13995 14588 ft 378 kts 357°
2026-05-07 05:39 25.45304 67.13889 15034 ft 382 kts 358°
2026-05-07 05:39 25.47951 67.13784 15489 ft 385 kts 358°
2026-05-07 05:40 25.50699 67.13675 15947 ft 389 kts 358°
2026-05-07 05:40 25.53412 67.13569 16374 ft 393 kts 358°
2026-05-07 05:40 25.56160 67.13455 16810 ft 397 kts 358°
2026-05-07 05:40 25.58888 67.13341 17294 ft 400 kts 358°
2026-05-07 05:41 25.61689 67.13226 17780 ft 403 kts 358°
2026-05-07 05:41 25.64515 67.13111 18218 ft 407 kts 358°
2026-05-07 05:41 25.67360 67.12999 18651 ft 410 kts 358°
2026-05-07 05:41 25.70213 67.12888 19076 ft 412 kts 357°
2026-05-07 05:42 25.73090 67.12776 19512 ft 413 kts 357°
2026-05-07 05:42 25.75972 67.12661 19939 ft 415 kts 357°
2026-05-07 05:42 25.78865 67.12542 20371 ft 417 kts 356°
2026-05-07 05:42 25.81776 67.12420 20794 ft 419 kts 356°
2026-05-07 05:43 25.84699 67.12298 21199 ft 421 kts 356°
2026-05-07 05:43 25.87628 67.12179 21597 ft 423 kts 356°
2026-05-07 05:43 25.90539 67.12064 21984 ft 424 kts 356°
2026-05-07 05:43 25.93500 67.11950 22348 ft 426 kts 356°
2026-05-07 05:44 25.96466 67.11835 22711 ft 428 kts 356°
2026-05-07 05:44 25.99449 67.11718 23066 ft 430 kts 355°
2026-05-07 05:44 26.02442 67.11597 23410 ft 431 kts 355°
2026-05-07 05:44 26.05442 67.11472 23694 ft 433 kts 355°
2026-05-07 05:45 26.08459 67.11345 23995 ft 434 kts 355°
2026-05-07 05:45 26.11491 67.11218 24299 ft 435 kts 355°
2026-05-07 05:45 26.14526 67.11093 24598 ft 436 kts 355°
2026-05-07 05:45 26.17560 67.10971 24896 ft 437 kts 355°
2026-05-07 05:46 26.20604 67.10847 25186 ft 438 kts 355°
2026-05-07 05:46 26.23638 67.10722 25547 ft 437 kts 355°
2026-05-07 05:46 26.26664 67.10600 25990 ft 434 kts 355°
2026-05-07 05:46 26.29683 67.10482 26440 ft 432 kts 354°
2026-05-07 05:47 26.32656 67.10368 26885 ft 429 kts 354°
2026-05-07 05:47 26.35635 67.10251 27340 ft 427 kts 354°
2026-05-07 05:47 26.38596 67.10131 27807 ft 424 kts 354°
2026-05-07 05:47 26.41535 67.10008 28288 ft 422 kts 354°
2026-05-07 05:48 26.44466 67.09887 28710 ft 421 kts 354°
2026-05-07 05:48 26.47390 67.09769 29170 ft 419 kts 354°
2026-05-07 05:48 26.50292 67.09652 29628 ft 417 kts 354°
2026-05-07 05:48 26.53195 67.09534 29768 ft 418 kts 353°
2026-05-07 05:49 26.56124 67.09411 29785 ft 426 kts 353°
2026-05-07 05:49 26.62100 67.09158 29794 ft 431 kts 354°
2026-05-07 05:50 26.68097 67.08916 29794 ft 431 kts 354°
2026-05-07 05:50 26.74102 67.08667 29789 ft 431 kts 353°
2026-05-07 05:51 26.80097 67.08422 29788 ft 430 kts 353°
2026-05-07 05:51 26.86049 67.08181 29792 ft 430 kts 353°
2026-05-07 05:52 26.92021 67.07936 29788 ft 430 kts 353°
2026-05-07 05:52 26.98048 67.07692 29795 ft 430 kts 353°
2026-05-07 05:53 27.03991 67.07454 29802 ft 430 kts 353°
2026-05-07 05:53 27.09959 67.07202 29809 ft 429 kts 353°
2026-05-07 05:54 27.15929 67.06955 29808 ft 429 kts 353°
2026-05-07 05:54 27.21890 67.06709 29810 ft 428 kts 353°
2026-05-07 05:55 27.27852 67.06458 29806 ft 428 kts 353°
2026-05-07 05:55 27.33801 67.06215 29828 ft 428 kts 353°
2026-05-07 05:56 27.39750 67.05975 29826 ft 428 kts 352°
2026-05-07 05:56 27.45710 67.05731 29816 ft 427 kts 353°
2026-05-07 05:57 27.51651 67.05482 29816 ft 426 kts 353°
2026-05-07 05:57 27.57578 67.05230 29827 ft 426 kts 353°
2026-05-07 05:58 27.63462 67.04975 29832 ft 425 kts 353°
2026-05-07 05:58 27.69368 67.04732 29826 ft 425 kts 353°
2026-05-07 05:59 27.75272 67.04497 29820 ft 424 kts 353°
2026-05-07 05:59 27.81169 67.04256 29817 ft 424 kts 353°
2026-05-07 06:00 27.87063 67.04003 29821 ft 424 kts 353°
2026-05-07 06:00 27.92965 67.03753 29821 ft 424 kts 353°
2026-05-07 06:01 27.98858 67.03506 29813 ft 424 kts 353°
2026-05-07 06:01 28.04738 67.03254 29802 ft 423 kts 353°
2026-05-07 06:02 28.10634 67.03005 29815 ft 424 kts 353°
2026-05-07 06:02 28.16499 67.02762 29801 ft 424 kts 353°
2026-05-07 06:03 28.22395 67.02515 29794 ft 423 kts 353°
2026-05-07 06:03 28.28290 67.02272 29837 ft 423 kts 353°
2026-05-07 06:04 28.34177 67.02028 29839 ft 423 kts 354°
2026-05-07 06:04 28.40077 67.01786 29851 ft 424 kts 353°
2026-05-07 06:05 28.45929 67.01522 29846 ft 423 kts 353°
2026-05-07 06:05 28.51815 67.01268 29851 ft 423 kts 353°
2026-05-07 06:06 28.57680 67.01032 29845 ft 423 kts 353°
2026-05-07 06:06 28.62572 67.00833 29854 ft 423 kts 353°
2026-05-07 06:07 28.68472 67.00582 29877 ft 423 kts 353°
2026-05-07 06:07 28.74353 67.00326 29879 ft 423 kts 353°
2026-05-07 06:08 28.80233 67.00071 29873 ft 423 kts 353°
2026-05-07 06:08 28.86119 66.99825 29885 ft 423 kts 353°
2026-05-07 06:09 28.92014 66.99575 29913 ft 423 kts 353°
2026-05-07 06:09 28.97901 66.99315 29900 ft 422 kts 353°
2026-05-07 06:10 29.03787 66.99065 29901 ft 424 kts 353°
2026-05-07 06:10 29.09685 66.98815 29895 ft 424 kts 353°
2026-05-07 06:11 29.15581 66.98562 29891 ft 424 kts 353°
2026-05-07 06:11 29.21433 66.98318 29535 ft 422 kts 353°
2026-05-07 06:11 29.24338 66.98194 28451 ft 426 kts 354°
2026-05-07 06:12 29.27299 66.98062 27313 ft 432 kts 354°
2026-05-07 06:12 29.30335 66.97927 26291 ft 440 kts 354°
2026-05-07 06:12 29.33422 66.97789 25572 ft 448 kts 355°
2026-05-07 06:12 29.36545 66.97653 24934 ft 454 kts 355°
2026-05-07 06:13 29.39725 66.97517 24446 ft 459 kts 355°
2026-05-07 06:13 29.42925 66.97383 24138 ft 462 kts 355°
2026-05-07 06:13 29.46146 66.97249 23854 ft 463 kts 355°
2026-05-07 06:13 29.49363 66.97113 23564 ft 463 kts 355°
2026-05-07 06:14 29.52561 66.96977 23135 ft 463 kts 356°
2026-05-07 06:14 29.55785 66.96840 22656 ft 461 kts 356°
2026-05-07 06:14 29.58982 66.96705 22194 ft 458 kts 356°
2026-05-07 06:14 29.62151 66.96571 21741 ft 455 kts 356°
2026-05-07 06:15 29.65309 66.96436 21292 ft 452 kts 356°
2026-05-07 06:15 29.68419 66.96300 20895 ft 440 kts 356°
2026-05-07 06:15 29.71436 66.96170 20466 ft 428 kts 357°
2026-05-07 06:15 29.74388 66.96042 19830 ft 422 kts 356°
2026-05-07 06:16 29.77308 66.95914 19168 ft 418 kts 357°
2026-05-07 06:16 29.80162 66.95654 18536 ft 415 kts 349°
2026-05-07 06:16 29.82953 66.94839 18088 ft 404 kts 340°
2026-05-07 06:16 29.85436 66.93562 17642 ft 387 kts 331°
2026-05-07 06:17 29.87662 66.91863 17150 ft 373 kts 322°
2026-05-07 06:17 29.89636 66.90066 16658 ft 360 kts 322°
2026-05-07 06:17 29.91594 66.88286 16069 ft 348 kts 322°
2026-05-07 06:17 29.93464 66.86586 15494 ft 337 kts 322°
2026-05-07 06:18 29.95273 66.84948 15016 ft 325 kts 322°
2026-05-07 06:18 29.97021 66.83364 14575 ft 314 kts 323°
2026-05-07 06:18 29.98709 66.81832 14177 ft 303 kts 323°
2026-05-07 06:18 30.00310 66.80376 13845 ft 291 kts 323°
2026-05-07 06:19 30.01874 66.78954 13477 ft 282 kts 323°
2026-05-07 06:19 30.03389 66.77577 13128 ft 273 kts 323°
2026-05-07 06:19 30.04859 66.76242 12917 ft 269 kts 323°
2026-05-07 06:19 30.06327 66.74909 12721 ft 268 kts 323°
2026-05-07 06:20 30.07781 66.73586 12518 ft 267 kts 323°
2026-05-07 06:20 30.09238 66.72259 12209 ft 267 kts 323°
2026-05-07 06:20 30.10773 66.71058 11866 ft 266 kts 334°
2026-05-07 06:20 30.12523 66.70381 11532 ft 265 kts 349°
2026-05-07 06:21 30.14367 66.70290 11195 ft 268 kts
2026-05-07 06:21 30.16126 66.70708 10933 ft 268 kts 11°
2026-05-07 06:21 30.17935 66.71211 10678 ft 266 kts 10°
2026-05-07 06:21 30.19736 66.71706 10423 ft 265 kts 11°
2026-05-07 06:22 30.21530 66.72197 10168 ft 265 kts 11°
2026-05-07 06:22 30.25070 66.73164 9670 ft 264 kts 11°
2026-05-07 06:22 30.26869 66.73656 9384 ft 264 kts 11°
2026-05-07 06:23 30.28663 66.74149 9106 ft 264 kts 11°
2026-05-07 06:23 30.30449 66.74644 8835 ft 263 kts 11°
2026-05-07 06:23 30.32228 66.75140 8554 ft 262 kts 12°
2026-05-07 06:23 30.33971 66.75627 8300 ft 261 kts 11°
2026-05-07 06:24 30.35734 66.76138 8079 ft 253 kts 17°
2026-05-07 06:24 30.37125 66.77247 7954 ft 246 kts 54°
2026-05-07 06:24 30.37610 66.79075 7899 ft 239 kts 93°
2026-05-07 06:24 30.37030 66.80813 7723 ft 231 kts 128°
2026-05-07 06:25 30.35960 66.82117 7495 ft 221 kts 137°
2026-05-07 06:25 30.34844 66.83318 7207 ft 215 kts 138°
2026-05-07 06:25 30.33796 66.84457 6944 ft 200 kts 137°
2026-05-07 06:25 30.32835 66.85511 6741 ft 180 kts 137°
2026-05-07 06:26 30.31936 66.86497 6513 ft 174 kts 139°
2026-05-07 06:26 30.31067 66.87451 6289 ft 171 kts 139°
2026-05-07 06:26 30.30217 66.88385 6101 ft 168 kts 138°
2026-05-07 06:26 30.29375 66.89334 5947 ft 167 kts 137°
2026-05-07 06:27 30.28539 66.90268 5783 ft 167 kts 138°
2026-05-07 06:27 30.27681 66.91169 5526 ft 168 kts 139°
2026-05-07 06:27 30.26820 66.92115 5301 ft 170 kts 137°
2026-05-07 06:27 30.25973 66.93049 5135 ft 164 kts 137°
2026-05-07 06:28 30.25212 66.93867 5129 ft 124 kts 136°
2026-05-07 06:28 30.24798 66.94323 5135 ft 46 kts 137°
2026-05-07 06:28 30.24683 66.94460 5136 ft 12 kts 110°
2026-05-07 06:28 30.24694 66.94507 5138 ft 1 kts 50°
2026-05-07 06:29 30.24695 66.94508 5138 ft 1 kts 50°
2026-05-07 06:29 30.24702 66.94516 5139 ft 2 kts 41°
2026-05-07 06:29 30.24717 66.94531 5140 ft 3 kts 41°
2026-05-07 06:29 30.24740 66.94554 5143 ft 6 kts 41°
2026-05-07 06:30 30.24784 66.94606 5144 ft 12 kts 49°
2026-05-07 06:30 30.24845 66.94681 5146 ft 9 kts 44°
2026-05-07 06:30 30.24858 66.94725 5145 ft 6 kts 127°
2026-05-07 06:30 30.24828 66.94759 5145 ft 3 kts 135°
2026-05-07 06:31 30.24829 66.94779 5147 ft 3 kts 52°
2026-05-07 06:31 30.24846 66.94800 5147 ft 4 kts 46°
2026-05-07 06:31 30.24862 66.94817 5148 ft 1 kts 40°
2026-05-07 06:31 30.24863 66.94818 5148 ft 0 kts 40°